Location: Bittkow
(50.3000°N, 19.0000°E)
Time: 12:17:57
(UTC+00:00)

ASTEX 1 - Pass Details

Date: 19 September 2020
Orbit: 721 x 742 km, 92.7° (Epoch: 23 October)

Event Time Altitude Azimuth Distance (km) Brightness Sun altitude
Rises 02:26:28 0° 2° (N) 3,189 7.1 -19.2°
Reaches altitude 10° 02:28:48 10° 359° (N) 2,264 6.3 -18.8°
Maximum altitude 02:33:43 59° 281° (W) 862 3.5 -18.1°
Enters shadow 02:36:22 26° 212° (SSW) 1,423 4.4 -17.7°
